Find Starlink 30426

NORAD ID: 57848 Int'l Des: 2023-141 Owner: SPXS Country: US Constellation: starlink operational
LEOCIRCULAR

現在のビュー

3D地球を読み込み中...

About Starlink 30426

Starlink 30426 (NORAD 57848) is a starlink constellation satellite (v2 mini) launched Sep 12, 2023 by SPXS of US. It operates in LEO, CIRCULAR orbit with a mass of 730.00 kg.

次回通過

Passes for default location (London). Set your location on the main map for personalized predictions.

高度履歴

Loading altitude history...

軌道要素

1 57848U 23141J 26264.22756465 .00000536 00000-0 26987-4 0 9990
2 57848 53.1612 94.3551 0000965 169.3619 190.7404 15.34395464170281
Epoch: Sep 21, 2026 • Age: 17 hours

現在のステータス

高度 468.8 km
遠地点 / 近地点 N/A
速度 7.63 km/s
衛星直下点 -23.11°S, 41.15°W
打ち上げ日 Sep 12, 2023
運用期間 3 years
タイプ internet

技術仕様

分類 Payload
質量 730.00 kg
乾燥質量 700.00 kg
長さ 0.30 m
スパン 29.00 m
形状 ? Box + pan
製造者 SPXS
バスタイプ Starlink V2M
フェーズステータス In Orbit
所有者/国 SPXS/US

Most Searched